STARLINK-37288, 68551

Orbit data source: Space-Track

STARLINK-37288, 68551 is a payload satellite owned by SpaceX/Seattle (US) in LEO that was launched on Thu, 02 Apr 2026 UTC via an FALCON 9 launch vehicle from the Air Force Eastern Test Range (AFETR). Payload-class satellites include a variety of spacecraft equipped with specific instruments for various scientific and technological missions. These include communications satellites like Starlink; space stations such as the ISS; scientific satellites like the Hubble; Earth observation satellites from companies like Planet Labs, Umbra, and HawkEye 360; GPS; miniature CubeSats for education and research; and military/defense satellites.

Loading next visibility...
Identifier
68551, 2026-070K
Orbit
LEO
Country
Flag of USUS
Related business
Manufacturer
SpaceX/Seattle
Mission
Operational Commercial Communications
Bus & Motor
STARLINK V2MO, Unknown motor
Mass
575 kg wet, ~530 kg dry
Launch date (UTC)
2026-04-02 (5 months ago)
Launch vehicle
FALCON 9
Launch site
Air Force Eastern Test Range (AFETR)
Object type
Payload
Rocket body
Debris
Shape & HBR
Box + 1 Pan, 17.7 m
Radar Cross Section
41.120 m², Large (>1 m²)

Expand to show TLE details & history
Last TLE update: 1 day ago

TLE from 1 day ago
0 STARLINK-37288
1 68551U 26070K   26246.28263391  .00012890  00000-0  39195-3 0  9994
2 68551  53.1592 254.2361 0001211  95.0687 265.0454 15.34402042 23797
Epoch: 2026-09-03T06:46Z
TLE epoch observation values (Epoch: 2026-09-03T06:46:59.569Z)
Latitude
-0.00002°
Longitude
170.06484°
Altitude
463.67 km
Speed
7.636 km/s
True Right ascension
16h 56m 56s
True Declination
0° 00' 00"
Sunlit
Object was in daylight at epoch
Visualization orbit readout
Latitude
Unknown
Longitude
Unknown
Altitude
Unknown
Speed
Unknown
Apparent Right ascension
Unknown
Apparent Declination
Unknown
Sunlit
N/A
Visualization observer readout
Local Sidereal Time
01:24:28
Azimuth
Unknown
Elevation
Unknown
Doppler factor
Unknown
Orbital elements
Apogee altitude
463.783 km
Perigee altitude
462.126 km
Semi-major axis
6,841.091 km
Eccentricity
0.00012
Inclination
53.1592°
RAAN
254.2361°
Arg. of periapsis
95.0687°
True anomaly
265.03157°
Mean anomaly
265.0454°
Eccentric anomaly
265.03849°
Mean motion
3.83579 °/min
Orbital period
93.85 mins
BSTAR
0.00039195
Loading maneuver chart data...
Computing Atmospheric mass density...
Loading historical data...
Loading historical data...
Loading historical data...
Loading historical data...
Loading historical data...
Loading historical data...
Loading historical data...

Documentation

Showing up to 5 results
|